[[{"header":{"parameterUnit":"m.s-1","parameterCategory":1,"la1":30.2992,"la2":30.254,"lo1":-89.0895,"lo2":-89.0443,"dy":0.0025,"dx":0.0025,"nx":19,"ny":19,"refTime":"2026-05-09T21:00:00:Z","depth":0,"parameterNumber":2,"parameterNumberName":"U-component_of_WINDS"},"data":[0,0,0,-1.7983,-1.7986,-1.8105,-1.8105,-1.8248,-1.8249,0,0,0,0,0,0,0,0,0,0,0,-1.7945,-1.7946,-1.7983,-1.7986,-1.8105,-1.8105,-1.8247,-1.8249,0,0,0,0,0,0,0,0,0,0,0,-1.7944,-1.7946,-1.7947,-1.7987,-1.8105,-1.8105,-1.8247,-1.816,0,0,0,0,0,0,0,0,0,0,-1.8046,-1.8008,-1.7945,-1.7947,-1.7987,-1.8104,-1.8105,-1.8156,-1.8166,-1.819,0,-1.8214,0,-1.8233,-1.8258,-1.8258,0,0,0,-1.7988,-1.8,-1.8036,-1.7947,-1.7988,-1.8104,-1.8052,-1.8162,-1.8172,-1.8203,-1.8216,-1.8221,-1.8236,-1.8259,-1.8259,-1.8399,-1.8399,0,0,-1.7981,-1.7964,-1.8028,-1.8042,-1.8026,-1.8048,-1.8055,-1.8168,-1.818,-1.8216,-1.8225,-1.8238,-1.826,-1.8261,-1.8398,-1.8399,0,0,0,-1.7961,-1.7959,-1.7992,-1.8036,-1.8058,-1.8051,-1.806,-1.8175,-1.8187,-1.8226,-1.824,-1.826,-1.8262,-1.8398,-1.8398,-1.8408,0,0,0,-1.7957,-1.7948,-1.7989,-1.798,-1.8056,-1.8119,-1.8064,-1.8179,-1.8193,-1.8239,-1.826,-1.8263,-1.8397,-1.8398,-1.8407,-1.8416,0,0,0,-1.7938,-1.7946,-1.7962,-1.7978,-1.8029,-1.8118,-1.8136,-1.8183,-1.8201,-1.8258,-1.8264,-1.8397,-1.8398,-1.8405,-1.8413,-1.8446,0,0,0,-1.7912,-1.797,-1.7962,-1.8031,-1.8028,-1.8124,-1.8136,-1.8208,-1.8258,-1.8261,-1.8397,-1.8398,-1.8405,-1.8412,-1.8444,-1.8469,-1.8478,0,0,-1.7975,-1.7977,-1.8019,-1.8015,-1.8108,-1.8107,-1.8201,-1.8263,-1.8284,-1.8358,-1.8362,-1.8407,-1.8413,-1.8445,-1.8538,-1.8545,0,0,0,-1.8032,-1.8062,-1.809,-1.8138,-1.8188,-1.8229,-1.8279,-1.8302,-1.8366,-1.8319,-1.8429,-1.8433,-1.8452,-1.8465,-1.8471,-1.8487,-1.8404,-1.8404,-1.8403,-1.8096,-1.8119,-1.8189,-1.8226,-1.8272,-1.8322,-1.836,-1.8399,-1.841,-1.8435,-1.8457,-1.851,-1.8524,-1.8529,-1.8546,-1.8473,-1.8473,-1.8473,-1.8473,-1.8188,-1.8233,-1.8245,-1.8317,-1.834,-1.84,-1.8449,-1.8454,-1.8511,-1.8496,-1.8514,-1.8494,-1.8536,-1.8552,-1.8474,-1.8474,-1.8474,-1.8474,-1.8474,-1.8231,-1.8256,-1.8283,-1.8353,-1.8403,-1.8438,-1.8492,-1.8512,-1.8531,-1.8549,-1.8572,-1.8572,-1.8573,-1.8559,-1.8559,-1.8559,-1.856,-1.856,-1.856,-1.8264,-1.8294,-1.8338,-1.8394,-1.8425,-1.847,-1.8518,-1.855,-1.8589,-1.8598,-1.8599,-1.8605,-1.8537,-1.8518,-1.8563,-1.8562,-1.8562,-1.8562,-1.8561,-1.8346,-1.833,-1.8399,-1.843,-1.8495,-1.8542,-1.8567,-1.8628,-1.8656,-1.8681,-1.8684,-1.8631,-1.8634,-1.8629,-1.8613,-1.868,-1.868,-1.868,-1.868,-1.8381,-1.8385,-1.8457,-1.8506,-1.8556,-1.8584,-1.8657,-1.8694,-1.873,-1.8748,-1.8742,-1.8724,-1.8718,-1.8724,-1.8717,-1.8703,-1.8791,-1.8791,-1.8791,-1.8432,-1.8441,-1.85,-1.8536,-1.8588,-1.8631,-1.8699,-1.8752,-1.879,-1.8796,-1.8762,-1.8758,-1.8728,-1.8718,-1.8723,-1.8712,-1.8686,0,0]},{"header":{"parameterUnit":"m.s-1","parameterCategory":1,"la1":30.2992,"la2":30.254,"lo1":-89.0895,"lo2":-89.0443,"dy":0.0025,"dx":0.0025,"nx":19,"ny":19,"refTime":"2026-05-09T21:00:00:Z","depth":0,"parameterNumber":3,"parameterNumberName":"V-component_of_WINDS"},"data":[0,0,0,-1.0074,-1.0073,-1.0001,-1.0001,-0.9914,-0.9913,0,0,0,0,0,0,0,0,0,0,0,-1.0101,-1.01,-1.0074,-1.0073,-1.0001,-1.0001,-0.9914,-0.9913,0,0,0,0,0,0,0,0,0,0,0,-1.0101,-1.01,-1.01,-1.0073,-1.0001,-1.0001,-0.9914,-0.9966,0,0,0,0,0,0,0,0,0,0,-1.0035,-1.0065,-1.01,-1.01,-1.0072,-1.0001,-1.0001,-0.9969,-0.9963,-0.9949,0,-0.994,0,-0.9926,-0.9908,-0.9908,0,0,0,-1.0068,-1.0069,-1.0046,-1.01,-1.0072,-1.0002,-1.0032,-0.9965,-0.9959,-0.9942,-0.9939,-0.9936,-0.9924,-0.9908,-0.9907,-0.9846,-0.9846,0,0,-1.0072,-1.009,-1.005,-1.0042,-1.0056,-1.0035,-1.003,-0.9961,-0.9959,-0.9939,-0.9934,-0.9923,-0.9907,-0.9906,-0.9846,-0.9846,0,0,0,-1.0087,-1.0093,-1.0071,-1.0046,-1.0032,-1.0033,-1.0028,-0.9962,-0.9953,-0.9933,-0.9922,-0.9907,-0.9906,-0.9846,-0.9846,-0.9859,0,0,0,-1.0089,-1.0101,-1.0073,-1.0083,-1.0034,-0.9997,-1.003,-0.9958,-0.995,-0.9922,-0.9907,-0.9905,-0.9846,-0.9846,-0.9859,-0.9862,0,0,0,-1.0103,-1.0103,-1.0095,-1.0084,-1.0054,-0.9998,-0.9985,-0.9956,-0.9943,-0.9908,-0.9905,-0.9846,-0.9846,-0.9859,-0.9862,-0.985,0,0,0,-1.0124,-1.0108,-1.0095,-1.0072,-1.0055,-1.0007,-0.9985,-0.9948,-0.9919,-0.9906,-0.9846,-0.9846,-0.9859,-0.9862,-0.985,-0.9844,-0.9843,0,0,-1.0113,-1.0107,-1.0092,-1.0079,-1.0038,-1.0016,-0.9976,-0.9933,-0.9912,-0.9869,-0.9867,-0.9859,-0.9862,-0.985,-0.9833,-0.9833,0,0,0,-1.0094,-1.0084,-1.0069,-1.0043,-1.001,-0.9981,-0.9941,-0.9925,-0.9887,-0.9894,-0.9852,-0.9853,-0.9845,-0.9841,-0.9841,-0.9832,-0.9845,-0.9845,-0.9845,-1.0105,-1.008,-1.0053,-1.0019,-0.9994,-0.9953,-0.9929,-0.9899,-0.9881,-0.9872,-0.9858,-0.9851,-0.9847,-0.9847,-0.9838,-0.9854,-0.9854,-0.9854,-0.9854,-1.0086,-1.0066,-1.0042,-1.0008,-0.9981,-0.995,-0.9909,-0.9897,-0.9864,-0.986,-0.9852,-0.9849,-0.9847,-0.9838,-0.9854,-0.9854,-0.9854,-0.9854,-0.9854,-1.0089,-1.0075,-1.0056,-1.0014,-0.9984,-0.995,-0.9918,-0.9895,-0.9872,-0.9864,-0.9847,-0.9846,-0.9842,-0.9858,-0.9858,-0.9858,-0.9858,-0.9858,-0.9858,-1.01,-1.0077,-1.0055,-1.0017,-0.9996,-0.9965,-0.9922,-0.99,-0.9869,-0.9854,-0.9854,-0.9836,-0.9852,-0.9856,-0.9857,-0.9857,-0.9857,-0.9857,-0.9857,-1.0089,-1.0087,-1.0053,-1.0032,-0.9984,-0.9954,-0.9924,-0.9881,-0.9859,-0.9844,-0.9827,-0.9843,-0.9835,-0.9835,-0.9838,-0.9834,-0.9834,-0.9834,-0.9834,-1.0091,-1.0085,-1.0043,-1.001,-0.9976,-0.9944,-0.9903,-0.9868,-0.9832,-0.9816,-0.9813,-0.9815,-0.9816,-0.9807,-0.9808,-0.981,-0.9799,-0.9799,-0.9799,-1.0082,-1.0071,-1.0042,-1.0007,-0.9967,-0.9933,-0.9892,-0.9854,-0.9812,-0.9797,-0.9802,-0.9804,-0.9807,-0.981,-0.9795,-0.9797,-0.98,0,0]}]]